Regional Weather Roundup
Issued by NWS Cleveland, OH

Home | Current Version | Previous Version | Graphics & Text | Print | Product List | Glossary On
Versions: 1 2 3 4 5 6 7 8 9 10 11 12 13 14 15 16 17 18 19 20 21 22 23 24 25 26 27 28 29 30 31 32 33 34 35 36 37 38 39 40 41 42 43 44 45 46 47 48 49 50
000
ASUS41 KCLE 250102
RWRCLE
OHIO REGIONAL WEATHER ROUNDUP
NATIONAL WEATHER SERVICE CLEVELAND, OH
900 PM EDT SUN MAY 24 2015

NOTE: "FAIR" INDICATES FEW OR NO CLOUDS BELOW 12,000 FEET WITH NO
SIGNIFICANT WEATHER AND/OR OBSTRUCTIONS TO VISIBILITY.

OHZ001>008-015>018-024>027-034-035-043-044-250200-
   NORTHWEST OHIO

CITY           SKY/WX    TMP DP  RH WIND       PRES   REMARKS
DEFIANCE       PTCLDY    78  52  40 S7        30.07S
FINDLAY        CLEAR     73  51  46 S9        30.09S
TOLEDO EXPRESS MOCLDY    75  51  43 SE3       30.08S
TOLEDO EXEC    MOCLDY    74  50  42 S6        30.08F
LIMA           CLEAR     75  50  41 S9        30.10S
$$

OHZ009>014-019>023-028>033-038-089-250200-
   NORTHEAST OHIO

CITY           SKY/WX    TMP DP  RH WIND       PRES   REMARKS
CLE-HOPKINS    CLOUDY    73  50  44 SE6       30.16S
CLE-LAKEFRONT  CLOUDY    76  45  33 SE6       30.13F
CUY CO. ARPT   MOCLDY    73  46  38 SE8       30.17F
LORAIN-ELYRIA  MOCLDY    74  51  44 S8        30.13F
ASHTABULA      CLOUDY    66  54  65 E3        30.18F
AKRON-CANTON   PTCLDY    70  49  47 S6        30.18F
WOOSTER        PTCLDY    71  51  49 SE7       30.17F
MANSFIELD      PTCLDY    72  53  51 SE7       30.15F
YOUNGSTOWN     CLOUDY    67  52  58 SE6       30.19F
$$

OHZ042-051>053-060>062-070>072-077>081-250200-
  SOUTHWEST OHIO

CITY           SKY/WX    TMP DP  RH WIND       PRES   REMARKS
CINC-COVINGTON PTCLDY    73  54  51 S8        30.13R
CINC-LUNKEN    PTCLDY    74  52  46 S5        30.12R
HAMILTON       PTCLDY    79  50  36 S5        30.12R
DAYTON         MOCLDY    78  50  37 S9        30.13R
WRIGHT-PAT AFB PTCLDY    76  50  40 S7        30.12R
DAYTON GENERAL PTCLDY    73  52  47 S7        30.12R
WILMINGTON     CLEAR     74  49  41 S5        30.14R
$$

OHZ036-037-039>041-045>050-054>059-063>069-073>076-082>088-250200-
  CENTRAL AND SOUTHEAST OHIO

CITY           SKY/WX    TMP DP  RH WIND       PRES   REMARKS
COLUMBUS       PTCLDY    77  53  43 SE7       30.14S
OSU AIRPORT    CLEAR     77  50  38 S8        30.13S
BOLTON FIELD   NOT AVBL
RICKENBACK AFB NOT AVBL
NEWARK         CLEAR     75  52  44 SE3       30.14S
MARION         CLEAR     73  50  44 S8        30.13S
LANCASTER      PTCLDY    75  53  46 S3        30.16R
ZANESVILLE     CLEAR     72  52  49 SE5       30.16F
NEW PHILLY     CLEAR     73  54  51 SE3       30.17F
$$


USA.gov is the U.S. government's official web portal to all federal, state and local government web resources and services.